sat.trackr.live / text

‹ back to catalog

AEHF-4 (USA 288)

NORAD 43651 · 2018-079A

PAYLOAD ACTIVE UNKNOWN

§ Identity

Operator
Country
US
Launch date
2018-10-17
Launch site
AFETR
Launch vehicle
Mass (kg)
RCS (m²)

Purposes: comms

External: N2YO · Heavens-Above · Gunter

§ Orbital elements

Epoch: 2026-09-20T03:30:38.801952Z

Period
1,436.02 min
Inclination
1.4216°
Eccentricity
0.0068483
Mean motion
1.00277236 rev/d
Perigee alt
35,496.3 km
Apogee alt
36,073.8 km
Semi-major
42,163.2 km
B*
0.0000e+0
RAAN
358.5087°
Arg perigee
359.7926°
Mean anomaly
345.8023°
Rev number
2,924

§ Raw data

AEHF-4 (USA 288)1 43651U 18079A   26263.14628243 -.00000278  00000+0  00000+0 0  99992 43651   1.4216 358.5087 0068483 359.7926 345.8023  1.00277236 29241

JSON: /api/v1/satellites/43651 · /tle

For live sub-satellite position, see the globe view (requires WebGL).

§ Visibility from observer

Set your observer location to see the next 7 days of passes ≥ 10°. The values pass through the URL so the page stays shareable.

No JS? Fill the form by hand. The geolocation button needs JavaScript.